This is the latest recevied weather packets stored in our database for station/object W9WRP. If no packets are shown the sender has not sent any weather packets the latest 10 day(s).
| Time | Temp. | Humidity | Pressure | Rain* | Wind** | Luminosity | Snow |
|---|---|---|---|---|---|---|---|
| 1788144319 | 97° F | 30% | 758.8 mmHg | 0 in | - | 0 W/m² | - |
| 1788144018 | 97° F | 30% | 759 mmHg | 0 in | - | 0 W/m² | - |
| 1788143716 | 97° F | 30% | 758.8 mmHg | 0 in | - | 0 W/m² | - |
| 1788143411 | 97° F | 30% | 758.8 mmHg | 0 in | - | 0 W/m² | - |
| 1788143110 | 98° F | 30% | 758.6 mmHg | 0 in | - | 0 W/m² | - |
| 1788142806 | 98° F | 29% | 758.5 mmHg | 0 in | - | 0 W/m² | - |
| 1788142504 | 98° F | 29% | 758.5 mmHg | 0 in | - | 0 W/m² | - |
| 1788142201 | 98° F | 29% | 758.5 mmHg | 0 in | - | 0 W/m² | - |
| 1788141900 | 98° F | 29% | 758.5 mmHg | 0 in | - | 1 W/m² | - |
| 1788141595 | 98° F | 29% | 758.5 mmHg | 0 in | - | 2 W/m² | - |
| 1788141291 | 99° F | 29% | 758.4 mmHg | 0 in | - | 3 W/m² | - |
| 1788140985 | 99° F | 28% | 758.4 mmHg | 0 in | - | 4 W/m² | - |
| 1788140675 | 99° F | 28% | 758.1 mmHg | 0 in | - | 5 W/m² | - |
| 1788140370 | 99° F | 27% | 758.2 mmHg | 0 in | - | 6 W/m² | - |
| 1788140066 | 99° F | 27% | 758.1 mmHg | 0 in | - | 8 W/m² | - |
| 1788139760 | 99° F | 28% | 757.9 mmHg | 0 in | - | 11 W/m² | - |
| 1788139455 | 100° F | 29% | 758.2 mmHg | 0 in | - | 15 W/m² | - |
| 1788139155 | 100° F | 29% | 758.1 mmHg | 0 in | - | 21 W/m² | - |
| 1788138850 | 100° F | 29% | 758.1 mmHg | 0 in | - | 29 W/m² | - |
| 1788138545 | 100° F | 29% | 758.2 mmHg | 0 in | - | 23 W/m² | - |
| 1788138240 | 101° F | 29% | 758.3 mmHg | 0 in | - | 28 W/m² | - |
| 1788137936 | 102° F | 29% | 758.2 mmHg | 0 in | - | 54 W/m² | - |
| 1788137631 | 102° F | 29% | 758.5 mmHg | 0 in | - | 53 W/m² | - |
| 1788137326 | 102° F | 28% | 758.4 mmHg | 0 in | - | 65 W/m² | - |
| 1788137022 | 102° F | 28% | 758.3 mmHg | 0 in | - | 60 W/m² | - |
* Rain latest hour (hover to see other rain measurements)
** Current wind speed in m/s (hover to see current wind gust speed)